,,,PA_Meas_PMT16A,,PR_Meas_QMR101_102,,RH_Meas_QMH101,,SR_Meas_QMS101,,TA_Meas_QMH101,,GenWind,,GenWind,
date,time,status,PA,status,PR,status,RH,status,SR,status,TA,status,DirAvg,status,SpdAvg,
2011-04-27, 00:00:04,VALID,999.134,VALID,0,VALID,92.5015,VALID,0,VALID,23.3305,VALID,112,VALID,0,
2011-04-27, 00:01:04,VALID,999.148,VALID,0,VALID,92.5091,VALID,0,VALID,23.3092,VALID,112,VALID,0,
2011-04-27, 00:02:04,VALID,999.14,VALID,0,VALID,92.5015,VALID,0,VALID,23.2702,VALID,112,VALID,0,
2011-04-27, 00:03:04,VALID,999.121,VALID,0,VALID,92.5091,VALID,0,VALID,23.2702,VALID,112,VALID,0,
2011-04-27, 00:04:04,VALID,999.124,VALID,0,VALID,92.5168,VALID,0,VALID,23.2702,VALID,112,VALID,0,
2011-04-27, 00:05:04,VALID,999.155,VALID,0,VALID,92.5549,VALID,0,VALID,23.2915,VALID,112,VALID,0.464063,
2011-04-27, 00:06:04,VALID,999.202,VALID,0,VALID,92.5244,VALID,0,VALID,23.2507,VALID,66,VALID,0.848828,
2011-04-27, 00:07:04,VALID,999.173,VALID,0,VALID,92.5168,VALID,0,VALID,23.2719,VALID,54,VALID,1.06406,
2011-04-27, 00:08:04,VALID,999.178,VALID,0,VALID,92.4863,VALID,0,VALID,23.2329,VALID,61,VALID,1.01563,
2011-04-27, 00:09:04,VALID,999.169,VALID,0,VALID,92.4634,VALID,0,VALID,23.2524,VALID,61,VALID,1.05117,
2011-04-27, 00:10:04,VALID,999.132,VALID,0,VALID,92.41,VALID,0,VALID,23.2719,VALID,66,VALID,1.05664,
2011-04-27, 00:11:04,VALID,999.124,VALID,0,VALID,92.4252,VALID,0,VALID,23.2719,VALID,51,VALID,1.12031,
2011-04-27, 00:12:04,VALID,999.066,VALID,0,VALID,92.3718,VALID,0,VALID,23.2915,VALID,45,VALID,1.17109,
2011-04-27, 00:13:04,VALID,999.099,VALID,0,VALID,92.3718,VALID,0,VALID,23.2719,VALID,42,VALID,1.31523,
2011-04-27, 00:14:04,VALID,999.068,VALID,0,VALID,92.3566,VALID,0,VALID,23.2507,VALID,36,VALID,1.24688,
2011-04-27, 00:15:04,VALID,999.052,VALID,0,VALID,92.3489,VALID,0,VALID,23.2524,VALID,36,VALID,1.18438,
2011-04-27, 00:16:04,VALID,999.032,VALID,0,VALID,92.3566,VALID,0,VALID,23.2524,VALID,39,VALID,1.0957,
2011-04-27, 00:17:04,VALID,999.019,VALID,0,VALID,92.3718,VALID,0,VALID,23.2134,VALID,39,VALID,0.9875,
2011-04-27, 00:18:04,VALID,999.003,VALID,0,VALID,92.3871,VALID,0,VALID,23.1921,VALID,41,VALID,1.1043,
2011-04-27, 00:19:04,VALID,998.992,VALID,0,VALID,92.41,VALID,0,VALID,23.2134,VALID,41,VALID,0.855078,
2011-04-27, 00:20:04,VALID,999.005,VALID,0,VALID,92.4328,VALID,0.112286,VALID,23.1921,VALID,39,VALID,0.497266,
2011-04-27, 00:21:04,VALID,999.006,VALID,0,VALID,92.4405,VALID,0,VALID,23.1726,VALID,36,VALID,0.304688,
2011-04-27, 00:22:04,VALID,998.97,VALID,0,VALID,92.4557,VALID,0,VALID,23.1726,VALID,36,VALID,0.242969,
2011-04-27, 00:23:04,VALID,998.956,VALID,0,VALID,92.4939,VALID,0,VALID,23.1744,VALID,36,VALID,0.122266,
2011-04-27, 00:24:04,VALID,998.943,VALID,0,VALID,92.4634,VALID,0,VALID,23.1744,VALID,36,VALID,0.0734375,
2011-04-27, 00:25:04,VALID,998.938,VALID,0,VALID,92.532,VALID,0,VALID,23.1939,VALID,36,VALID,0,
2011-04-27, 00:26:04,VALID,998.925,VALID,0,VALID,92.5244,VALID,0,VALID,23.1531,VALID,36,VALID,0.389844,
2011-04-27, 00:27:04,VALID,998.882,VALID,0,VALID,92.5549,VALID,0,VALID,23.1726,VALID,36,VALID,0.514063,
2011-04-27, 00:28:04,VALID,998.839,VALID,0,VALID,92.5168,VALID,0,VALID,23.1744,VALID,188,VALID,0.683984,
2011-04-27, 00:29:04,VALID,998.812,VALID,0,VALID,92.5549,VALID,0,VALID,23.2329,VALID,188,VALID,0.757422,
2011-04-27, 00:30:04,VALID,998.782,VALID,0,VALID,92.5549,VALID,0,VALID,23.2329,VALID,182,VALID,0.933594,
2011-04-27, 00:31:04,VALID,998.745,VALID,0,VALID,92.5168,VALID,0,VALID,23.2719,VALID,185,VALID,1.12109,
2011-04-27, 00:32:04,VALID,998.725,VALID,0,VALID,92.4786,VALID,0,VALID,23.2915,VALID,175,VALID,1.13281,
2011-04-27, 00:33:04,VALID,998.733,VALID,0,VALID,92.4405,VALID,0,VALID,23.3092,VALID,175,VALID,0.880859,
2011-04-27, 00:34:04,VALID,998.702,VALID,0,VALID,92.3794,VALID,0,VALID,23.3305,VALID,173,VALID,1.09922,
2011-04-27, 00:35:04,VALID,998.706,VALID,0,VALID,92.2879,VALID,0,VALID,23.3695,VALID,162,VALID,0.930859,
2011-04-27, 00:36:04,VALID,998.684,VALID,0,VALID,92.1582,VALID,0,VALID,23.35,VALID,158,VALID,0.676953,
2011-04-27, 00:37:04,VALID,998.681,VALID,0,VALID,92.0666,VALID,0,VALID,23.35,VALID,161,VALID,0.664063,
2011-04-27, 00:38:04,VALID,998.672,VALID,0,VALID,91.9674,VALID,0,VALID,23.3695,VALID,172,VALID,0.9875,
2011-04-27, 00:39:04,VALID,998.642,VALID,0,VALID,91.8988,VALID,0,VALID,23.3677,VALID,178,VALID,1.13125,
2011-04-27, 00:40:04,VALID,998.64,VALID,0,VALID,91.7996,VALID,0,VALID,23.4085,VALID,182,VALID,1.02813,
2011-04-27, 00:41:04,VALID,998.622,VALID,0,VALID,91.6851,VALID,0,VALID,23.428,VALID,174,VALID,1.23516,
2011-04-27, 00:42:04,VALID,998.635,VALID,0,VALID,91.586,VALID,0,VALID,23.4263,VALID,173,VALID,1.52031,
2011-04-27, 00:43:04,VALID,998.577,VALID,0,VALID,91.4944,VALID,0,VALID,23.4475,VALID,179,VALID,1.48672,
2011-04-27, 00:44:04,VALID,998.616,VALID,0,VALID,91.4028,VALID,0,VALID,23.4475,VALID,181,VALID,1.52031,
2011-04-27, 00:45:04,VALID,998.615,VALID,0,VALID,91.3266,VALID,0,VALID,23.428,VALID,164,VALID,1.12109,
2011-04-27, 00:46:04,VALID,998.572,VALID,0,VALID,91.235,VALID,0,VALID,23.4085,VALID,164,VALID,0.853906,
2011-04-27, 00:47:04,VALID,998.59,VALID,0,VALID,91.2274,VALID,0,VALID,23.389,VALID,154,VALID,0.922266,
2011-04-27, 00:48:04,VALID,998.591,VALID,0,VALID,91.1892,VALID,0,VALID,23.3908,VALID,152,VALID,0.957812,
2011-04-27, 00:49:04,VALID,998.589,VALID,0,VALID,91.2121,VALID,0,VALID,23.3518,VALID,152,VALID,0.721484,
2011-04-27, 00:50:04,VALID,998.591,VALID,0,VALID,91.2045,VALID,0,VALID,23.2915,VALID,151,VALID,0.571484,
2011-04-27, 00:51:04,VALID,998.59,VALID,0,VALID,91.2579,VALID,0,VALID,23.2524,VALID,151,VALID,0.490625,
2011-04-27, 00:52:04,VALID,998.597,VALID,0,VALID,91.3189,VALID,0,VALID,23.2134,VALID,151,VALID,0.271875,
2011-04-27, 00:53:04,VALID,998.556,VALID,0,VALID,91.3647,VALID,0,VALID,23.1939,VALID,151,VALID,0.300781,
2011-04-27, 00:54:04,VALID,998.537,VALID,0,VALID,91.4334,VALID,0,VALID,23.1957,VALID,151,VALID,0,
2011-04-27, 00:55:04,VALID,998.534,VALID,0,VALID,91.5554,VALID,0,VALID,23.1957,VALID,131,VALID,0,
2011-04-27, 00:56:04,VALID,998.536,VALID,0,VALID,91.6699,VALID,0,VALID,23.1957,VALID,70,VALID,0.785547,
2011-04-27, 00:57:04,VALID,998.546,VALID,0,VALID,91.7843,VALID,0,VALID,23.1762,VALID,53,VALID,0.866406,
2011-04-27, 00:58:04,VALID,998.539,VALID,0,VALID,91.8683,VALID,0,VALID,23.1354,VALID,51,VALID,1.02461,
2011-04-27, 00:59:04,VALID,998.58,VALID,0,VALID,91.914,VALID,0,VALID,23.1371,VALID,48,VALID,1.21484,
2011-04-27, 01:00:04,VALID,998.544,VALID,0,VALID,91.9598,VALID,0,VALID,23.1176,VALID,46,VALID,1.15625,
2011-04-27, 01:01:04,VALID,998.536,VALID,0,VALID,91.9674,VALID,0,VALID,23.0981,VALID,43,VALID,1.31367,
2011-04-27, 01:02:04,VALID,998.553,VALID,0,VALID,91.9293,VALID,0,VALID,23.0573,VALID,26,VALID,1.44805,
2011-04-27, 01:03:04,VALID,998.543,VALID,0,VALID,91.9445,VALID,0,VALID,23.0573,VALID,34,VALID,1.31406,
2011-04-27, 01:04:04,VALID,998.56,VALID,0,VALID,91.9674,VALID,0,VALID,23.0591,VALID,38,VALID,1.26875,
2011-04-27, 01:05:04,VALID,998.528,VALID,0,VALID,91.9903,VALID,0,VALID,23.0591,VALID,36,VALID,0.9375,
2011-04-27, 01:06:04,VALID,998.524,VALID,0,VALID,91.9903,VALID,0,VALID,23.0396,VALID,36,VALID,1.01094,
2011-04-27, 01:07:04,VALID,998.472,VALID,0,VALID,92.0132,VALID,0,VALID,23.0183,VALID,40,VALID,0.789453,
2011-04-27, 01:08:04,VALID,998.483,VALID,0,VALID,92.0514,VALID,0,VALID,23.0396,VALID,36,VALID,0.821094,
2011-04-27, 01:09:04,VALID,998.48,VALID,0,VALID,92.0819,VALID,0,VALID,23.0006,VALID,36,VALID,0.592188,
2011-04-27, 01:10:04,VALID,998.442,VALID,0,VALID,92.1277,VALID,0,VALID,22.9811,VALID,36,VALID,0.685156,
2011-04-27, 01:11:04,VALID,998.446,VALID,0,VALID,92.1734,VALID,0,VALID,22.9811,VALID,36,VALID,0.760156,
2011-04-27, 01:12:04,VALID,998.44,VALID,0,VALID,92.2192,VALID,0,VALID,22.9615,VALID,24,VALID,0.663672,
2011-04-27, 01:13:04,VALID,998.452,VALID,0,VALID,92.2345,VALID,0,VALID,22.9615,VALID,25,VALID,0.644922,
2011-04-27, 01:14:04,VALID,998.436,VALID,0,VALID,92.2879,VALID,0,VALID,22.9403,VALID,30,VALID,0.449609,
2011-04-27, 01:15:04,VALID,998.46,VALID,0,VALID,92.3108,VALID,0,VALID,22.942,VALID,36,VALID,0.475781,
2011-04-27, 01:16:04,VALID,998.448,VALID,0,VALID,92.3413,VALID,0,VALID,22.9403,VALID,36,VALID,0.289063,
2011-04-27, 01:17:04,VALID,998.429,VALID,0,VALID,92.3642,VALID,0,VALID,22.942,VALID,36,VALID,0,
2011-04-27, 01:18:04,VALID,998.403,VALID,0,VALID,92.3794,VALID,0,VALID,22.942,VALID,36,VALID,0.000390625,
2011-04-27, 01:19:04,VALID,998.392,VALID,0,VALID,92.3947,VALID,0,VALID,22.942,VALID,36,VALID,0.330078,
2011-04-27, 01:20:04,VALID,998.392,VALID,0,VALID,92.41,VALID,0,VALID,22.9225,VALID,36,VALID,0.307422,
2011-04-27, 01:21:04,VALID,998.37,VALID,0,VALID,92.4176,VALID,0,VALID,22.9013,VALID,36,VALID,0.264844,
2011-04-27, 01:22:04,VALID,998.366,VALID,0,VALID,92.4328,VALID,0,VALID,22.9225,VALID,36,VALID,0.305469,
2011-04-27, 01:23:04,VALID,998.358,VALID,0,VALID,92.4405,VALID,0,VALID,22.9225,VALID,36,VALID,0.462109,
2011-04-27, 01:24:04,VALID,998.338,VALID,0,VALID,92.4557,VALID,0,VALID,22.903,VALID,36,VALID,0.369922,
2011-04-27, 01:25:04,VALID,998.326,VALID,0,VALID,92.4634,VALID,0,VALID,22.903,VALID,36,VALID,0.373437,
2011-04-27, 01:26:04,VALID,998.292,VALID,0,VALID,92.5091,VALID,0,VALID,22.903,VALID,36,VALID,0.435937,
2011-04-27, 01:27:04,VALID,998.289,VALID,0,VALID,92.5015,VALID,0,VALID,22.8818,VALID,36,VALID,0.526953,
2011-04-27, 01:28:04,VALID,998.251,VALID,0,VALID,92.4863,VALID,0,VALID,22.8835,VALID,92,VALID,0.673047,
2011-04-27, 01:29:04,VALID,998.231,VALID,0,VALID,92.4939,VALID,0,VALID,22.8835,VALID,92,VALID,0.546484,
2011-04-27, 01:30:04,VALID,998.228,VALID,0,VALID,92.4863,VALID,0,VALID,22.8818,VALID,92,VALID,0.623047,
2011-04-27, 01:31:04,VALID,998.206,VALID,0,VALID,92.5015,VALID,0,VALID,22.8818,VALID,92,VALID,0.455859,
2011-04-27, 01:32:04,VALID,998.174,VALID,0,VALID,92.5091,VALID,0,VALID,22.8818,VALID,92,VALID,0.483203,
2011-04-27, 01:33:04,VALID,998.185,VALID,0,VALID,92.4786,VALID,0,VALID,22.8623,VALID,92,VALID,0.596094,
2011-04-27, 01:34:04,VALID,998.177,VALID,0,VALID,92.471,VALID,0,VALID,22.8818,VALID,92,VALID,0.548437,
2011-04-27, 01:35:04,VALID,998.176,VALID,0,VALID,92.5015,VALID,0,VALID,22.841,VALID,92,VALID,0.667969,
2011-04-27, 01:36:04,VALID,998.147,VALID,0,VALID,92.5091,VALID,0,VALID,22.8623,VALID,92,VALID,0.516016,
2011-04-27, 01:37:04,VALID,998.146,VALID,0,VALID,92.5168,VALID,0,VALID,22.8623,VALID,92,VALID,0.521484,
2011-04-27, 01:38:04,VALID,998.137,VALID,0,VALID,92.5091,VALID,0,VALID,22.802,VALID,92,VALID,0.601172,
2011-04-27, 01:39:04,VALID,998.135,VALID,0,VALID,92.5091,VALID,0,VALID,22.8427,VALID,110,VALID,0.869922,
2011-04-27, 01:40:04,VALID,998.14,VALID,0,VALID,92.5397,VALID,0,VALID,22.8427,VALID,113,VALID,0.988672,
2011-04-27, 01:41:04,VALID,998.123,VALID,0,VALID,92.5549,VALID,0,VALID,22.802,VALID,124,VALID,1.03828,
2011-04-27, 01:42:04,VALID,998.117,VALID,0,VALID,92.5626,VALID,0,VALID,22.8232,VALID,124,VALID,0.9875,
2011-04-27, 01:43:04,VALID,998.088,VALID,0,VALID,92.5931,VALID,0,VALID,22.8232,VALID,124,VALID,0.866797,
2011-04-27, 01:44:04,VALID,998.074,VALID,0,VALID,92.5854,VALID,0,VALID,22.8037,VALID,124,VALID,0.747656,
2011-04-27, 01:45:04,VALID,998.014,VALID,0,VALID,92.616,VALID,0,VALID,22.763,VALID,124,VALID,0.617188,
2011-04-27, 01:46:04,VALID,998.027,VALID,0,VALID,92.6312,VALID,0,VALID,22.8037,VALID,124,VALID,0.423438,
2011-04-27, 01:47:04,VALID,998.023,VALID,0,VALID,92.6694,VALID,0.112286,VALID,22.7825,VALID,124,VALID,0.435937,
2011-04-27, 01:48:04,VALID,997.962,VALID,0,VALID,92.6999,VALID,0,VALID,22.8037,VALID,124,VALID,0.363672,
2011-04-27, 01:49:04,VALID,997.995,VALID,0,VALID,92.7151,VALID,0,VALID,22.8037,VALID,124,VALID,0.36875,
2011-04-27, 01:50:04,VALID,997.972,VALID,0,VALID,92.738,VALID,0,VALID,22.7842,VALID,124,VALID,0.257031,
2011-04-27, 01:51:04,VALID,997.937,VALID,0,VALID,92.7151,VALID,0,VALID,22.763,VALID,124,VALID,0.110156,
2011-04-27, 01:52:04,VALID,997.938,VALID,0,VALID,92.738,VALID,0,VALID,22.7647,VALID,124,VALID,0,
2011-04-27, 01:53:04,VALID,997.902,VALID,0,VALID,92.7457,VALID,0,VALID,22.7257,VALID,124,VALID,0,
2011-04-27, 01:54:04,VALID,997.87,VALID,0,VALID,92.738,VALID,0,VALID,22.7257,VALID,124,VALID,0,
2011-04-27, 01:55:04,VALID,997.864,VALID,0,VALID,92.738,VALID,0,VALID,22.685,VALID,124,VALID,0,
2011-04-27, 01:56:04,VALID,997.854,VALID,0,VALID,92.7609,VALID,0,VALID,22.7062,VALID,124,VALID,0,
2011-04-27, 01:57:04,VALID,997.834,VALID,0,VALID,92.7685,VALID,0,VALID,22.7257,VALID,124,VALID,0.427344,
2011-04-27, 01:58:04,VALID,997.825,VALID,0,VALID,92.8067,VALID,0,VALID,22.685,VALID,81,VALID,0.731641,
2011-04-27, 01:59:04,VALID,997.829,VALID,0,VALID,92.7914,VALID,0,VALID,22.724,VALID,59,VALID,0.712109,
2011-04-27, 02:00:04,VALID,997.815,VALID,0,VALID,92.8143,VALID,0,VALID,22.6867,VALID,49,VALID,0.858203,
2011-04-27, 02:01:04,VALID,997.789,VALID,0,VALID,92.7609,VALID,0,VALID,22.6884,VALID,49,VALID,0.639063,
2011-04-27, 02:02:04,VALID,997.773,VALID,0,VALID,92.7304,VALID,0,VALID,22.6689,VALID,65,VALID,0.611719,
2011-04-27, 02:03:04,VALID,997.775,VALID,0,VALID,92.6846,VALID,0,VALID,22.6689,VALID,53,VALID,0.816797,
2011-04-27, 02:04:04,VALID,997.767,VALID,0,VALID,92.6312,VALID,0,VALID,22.6282,VALID,45,VALID,0.976563,
2011-04-27, 02:05:04,VALID,997.755,VALID,0,VALID,92.5931,VALID,0,VALID,22.6282,VALID,34,VALID,0.998828,
2011-04-27, 02:06:04,VALID,997.752,VALID,0,VALID,92.5168,VALID,0,VALID,22.6087,VALID,29,VALID,0.995313,
2011-04-27, 02:07:04,VALID,997.728,VALID,0,VALID,92.4481,VALID,0,VALID,22.5909,VALID,26,VALID,1.025,
2011-04-27, 02:08:04,VALID,997.704,VALID,0,VALID,92.4023,VALID,0,VALID,22.5696,VALID,26,VALID,0.859375,
2011-04-27, 02:09:04,VALID,997.687,VALID,0,VALID,92.3947,VALID,0,VALID,22.5714,VALID,26,VALID,0.9125,
2011-04-27, 02:10:04,VALID,997.692,VALID,0,VALID,92.41,VALID,0,VALID,22.5714,VALID,26,VALID,0.852344,
2011-04-27, 02:11:04,VALID,997.658,VALID,0,VALID,92.4252,VALID,0,VALID,22.5909,VALID,26,VALID,0.752344,
2011-04-27, 02:12:04,VALID,997.655,VALID,0,VALID,92.4481,VALID,0,VALID,22.5501,VALID,26,VALID,0.702344,
2011-04-27, 02:13:04,VALID,997.634,VALID,0,VALID,92.4634,VALID,0,VALID,22.5519,VALID,26,VALID,0.777734,
2011-04-27, 02:14:04,VALID,997.641,VALID,0,VALID,92.4557,VALID,0,VALID,22.5111,VALID,30,VALID,0.714844,
2011-04-27, 02:15:04,VALID,997.632,VALID,0,VALID,92.4634,VALID,0,VALID,22.5094,VALID,32,VALID,0.580859,
2011-04-27, 02:16:04,VALID,997.632,VALID,0,VALID,92.532,VALID,0,VALID,22.5306,VALID,32,VALID,0.566797,
2011-04-27, 02:17:04,VALID,997.648,VALID,0,VALID,92.5702,VALID,0,VALID,22.5289,VALID,34,VALID,0.6875,
2011-04-27, 02:18:04,VALID,997.619,VALID,0,VALID,92.5626,VALID,0,VALID,22.5094,VALID,42,VALID,0.660547,
2011-04-27, 02:19:04,VALID,997.613,VALID,0,VALID,92.5473,VALID,0,VALID,22.5306,VALID,42,VALID,0.571094,
2011-04-27, 02:20:04,VALID,997.619,VALID,0,VALID,92.532,VALID,0,VALID,22.5111,VALID,42,VALID,0.403516,
2011-04-27, 02:21:04,VALID,997.63,VALID,0,VALID,92.5091,VALID,0,VALID,22.4916,VALID,42,VALID,0.199609,
2011-04-27, 02:22:04,VALID,997.565,VALID,0,VALID,92.5015,VALID,0,VALID,22.4704,VALID,42,VALID,0,
2011-04-27, 02:23:04,VALID,997.635,VALID,0,VALID,92.4786,VALID,0,VALID,22.4526,VALID,42,VALID,0,
2011-04-27, 02:24:04,VALID,997.615,VALID,0,VALID,92.4481,VALID,0.112286,VALID,22.4331,VALID,42,VALID,0,
2011-04-27, 02:25:04,VALID,997.627,VALID,0,VALID,92.4481,VALID,0,VALID,22.4136,VALID,42,VALID,0,
2011-04-27, 02:26:04,VALID,997.615,VALID,0,VALID,92.4481,VALID,0,VALID,22.3941,VALID,42,VALID,0,
2011-04-27, 02:27:04,VALID,997.632,VALID,0,VALID,92.4634,VALID,0,VALID,22.3941,VALID,42,VALID,0,
2011-04-27, 02:28:04,VALID,997.603,VALID,0,VALID,92.4939,VALID,0,VALID,22.3941,VALID,42,VALID,0,
2011-04-27, 02:29:04,VALID,997.617,VALID,0,VALID,92.5168,VALID,0,VALID,22.3941,VALID,42,VALID,0,
2011-04-27, 02:30:04,VALID,997.62,VALID,0,VALID,92.5702,VALID,0,VALID,22.3958,VALID,42,VALID,0,
2011-04-27, 02:31:04,VALID,997.602,VALID,0,VALID,92.6083,VALID,0,VALID,22.3958,VALID,42,VALID,0,
2011-04-27, 02:32:04,VALID,997.595,VALID,0,VALID,92.6388,VALID,0,VALID,22.4153,VALID,42,VALID,0,
2011-04-27, 02:33:04,VALID,997.605,VALID,0,VALID,92.677,VALID,0,VALID,22.4153,VALID,42,VALID,0.446484,
2011-04-27, 02:34:04,VALID,997.593,VALID,0,VALID,92.7151,VALID,0,VALID,22.4348,VALID,42,VALID,0.608984,
2011-04-27, 02:35:04,VALID,997.598,VALID,0,VALID,92.7533,VALID,0,VALID,22.4348,VALID,42,VALID,0.641797,
2011-04-27, 02:36:04,VALID,997.641,VALID,0,VALID,92.7762,VALID,0,VALID,22.4526,VALID,42,VALID,0.649219,
2011-04-27, 02:37:04,VALID,997.609,VALID,0,VALID,92.7991,VALID,0,VALID,22.4526,VALID,112,VALID,0.727734,
2011-04-27, 02:38:04,VALID,997.63,VALID,0,VALID,92.8601,VALID,0,VALID,22.4721,VALID,116,VALID,0.921094,
2011-04-27, 02:39:04,VALID,997.59,VALID,0,VALID,92.8372,VALID,0,VALID,22.4933,VALID,118,VALID,0.774609,
2011-04-27, 02:40:04,VALID,997.625,VALID,0,VALID,92.8677,VALID,0,VALID,22.4933,VALID,118,VALID,0.816797,
2011-04-27, 02:41:04,VALID,997.659,VALID,0,VALID,92.8906,VALID,0,VALID,22.5128,VALID,118,VALID,0.84375,
2011-04-27, 02:42:04,VALID,997.691,VALID,0,VALID,92.883,VALID,0,VALID,22.5128,VALID,118,VALID,0.822656,
2011-04-27, 02:43:04,VALID,997.682,VALID,0,VALID,92.8983,VALID,0,VALID,22.5128,VALID,118,VALID,0.626953,
2011-04-27, 02:44:04,VALID,997.697,VALID,0,VALID,92.8983,VALID,0,VALID,22.5128,VALID,118,VALID,0.653906,
2011-04-27, 02:45:04,VALID,997.709,VALID,0,VALID,92.9059,VALID,0,VALID,22.4933,VALID,118,VALID,0.584766,
2011-04-27, 02:46:04,VALID,997.708,VALID,0,VALID,92.9364,VALID,0,VALID,22.4916,VALID,118,VALID,0.49375,
2011-04-27, 02:47:04,VALID,997.69,VALID,0,VALID,92.9364,VALID,0,VALID,22.4916,VALID,118,VALID,0.651563,
2011-04-27, 02:48:04,VALID,997.654,VALID,0,VALID,92.9364,VALID,0,VALID,22.5128,VALID,118,VALID,0.735547,
2011-04-27, 02:49:04,VALID,997.68,VALID,0,VALID,92.9593,VALID,0,VALID,22.5128,VALID,118,VALID,0.533984,
2011-04-27, 02:50:04,VALID,997.644,VALID,0,VALID,92.9364,VALID,0,VALID,22.5111,VALID,133,VALID,0.672656,
2011-04-27, 02:51:04,VALID,997.657,VALID,0,VALID,92.9745,VALID,0,VALID,22.5306,VALID,133,VALID,0.748047,
2011-04-27, 02:52:04,VALID,997.661,VALID,0,VALID,92.9593,VALID,0.112286,VALID,22.5501,VALID,132,VALID,0.729297,
2011-04-27, 02:53:04,VALID,997.607,VALID,0,VALID,92.9517,VALID,0,VALID,22.5306,VALID,131,VALID,0.842188,
2011-04-27, 02:54:04,VALID,997.593,VALID,0,VALID,92.9517,VALID,0,VALID,22.5696,VALID,125,VALID,0.717578,
2011-04-27, 02:55:04,VALID,997.605,VALID,0,VALID,92.9517,VALID,0,VALID,22.5892,VALID,106,VALID,0.797656,
2011-04-27, 02:56:04,VALID,997.595,VALID,0,VALID,92.9288,VALID,0,VALID,22.6087,VALID,109,VALID,0.298828,
2011-04-27, 02:57:04,VALID,997.596,VALID,0,VALID,92.9059,VALID,0,VALID,22.6282,VALID,106,VALID,0.476172,
2011-04-27, 02:58:04,VALID,997.564,VALID,0,VALID,92.8983,VALID,0,VALID,22.6477,VALID,106,VALID,0,
2011-04-27, 02:59:04,VALID,997.555,VALID,0,VALID,92.8906,VALID,0,VALID,22.6477,VALID,106,VALID,0,
2011-04-27, 03:00:04,VALID,997.554,VALID,0,VALID,92.8525,VALID,0.112286,VALID,22.6655,VALID,106,VALID,0,
2011-04-27, 03:01:04,VALID,997.574,VALID,0,VALID,92.8448,VALID,0.112286,VALID,22.685,VALID,106,VALID,0,
2011-04-27, 03:02:04,VALID,997.535,VALID,0,VALID,92.8143,VALID,0.112286,VALID,22.7045,VALID,106,VALID,0,
2011-04-27, 03:03:04,VALID,997.54,VALID,0,VALID,92.7762,VALID,0,VALID,22.7045,VALID,106,VALID,0,
2011-04-27, 03:04:04,VALID,997.533,VALID,0,VALID,92.7533,VALID,0.112286,VALID,22.7435,VALID,106,VALID,0,
2011-04-27, 03:05:04,VALID,997.546,VALID,0,VALID,92.7228,VALID,0.112286,VALID,22.7842,VALID,105,VALID,0,
2011-04-27, 03:06:04,VALID,997.524,VALID,0,VALID,92.6312,VALID,0.112286,VALID,22.7825,VALID,105,VALID,0.494141,
2011-04-27, 03:07:04,VALID,997.534,VALID,0,VALID,92.5626,VALID,0.112286,VALID,22.802,VALID,105,VALID,0.460547,
2011-04-27, 03:08:04,VALID,997.506,VALID,0,VALID,92.471,VALID,0.112286,VALID,22.8215,VALID,116,VALID,0.409766,
2011-04-27, 03:09:04,VALID,997.498,VALID,0,VALID,92.3718,VALID,0.112286,VALID,22.8818,VALID,104,VALID,0.678125,
2011-04-27, 03:10:04,VALID,997.511,VALID,0,VALID,92.2268,VALID,0.112286,VALID,22.8605,VALID,104,VALID,0.558203,
2011-04-27, 03:11:04,VALID,997.495,VALID,0,VALID,92.1506,VALID,0.112286,VALID,22.8588,VALID,104,VALID,0.457031,
2011-04-27, 03:12:04,VALID,997.481,VALID,0,VALID,92.0132,VALID,0.224572,VALID,22.8995,VALID,87,VALID,0.713281,
2011-04-27, 03:13:04,VALID,997.426,VALID,0,VALID,91.8911,VALID,0.112286,VALID,22.9208,VALID,87,VALID,0.538672,
2011-04-27, 03:14:04,VALID,997.425,VALID,0,VALID,91.7614,VALID,0.112286,VALID,22.919,VALID,98,VALID,0.431641,
2011-04-27, 03:15:04,VALID,997.441,VALID,0,VALID,91.6165,VALID,0,VALID,22.9225,VALID,88,VALID,0.508984,
2011-04-27, 03:16:04,VALID,997.401,VALID,0,VALID,91.4715,VALID,0,VALID,22.9225,VALID,88,VALID,0.594141,
2011-04-27, 03:17:04,VALID,997.39,VALID,0,VALID,91.3418,VALID,0,VALID,22.9225,VALID,88,VALID,0.210156,
2011-04-27, 03:18:04,VALID,997.4,VALID,0,VALID,91.2197,VALID,0,VALID,22.9013,VALID,88,VALID,0,
2011-04-27, 03:19:04,VALID,997.382,VALID,0,VALID,91.1053,VALID,0,VALID,22.9013,VALID,88,VALID,0,
2011-04-27, 03:20:04,VALID,997.381,VALID,0,VALID,91.0443,VALID,0,VALID,22.9013,VALID,88,VALID,0.475781,
2011-04-27, 03:21:04,VALID,997.401,VALID,0,VALID,90.9527,VALID,0,VALID,22.9013,VALID,92,VALID,0.787891,
2011-04-27, 03:22:04,VALID,997.4,VALID,0,VALID,90.8688,VALID,0,VALID,22.9013,VALID,104,VALID,0.719922,
2011-04-27, 03:23:04,VALID,997.426,VALID,0,VALID,90.8077,VALID,0,VALID,22.8818,VALID,104,VALID,0.646875,
2011-04-27, 03:24:04,VALID,997.435,VALID,0,VALID,90.8154,VALID,0,VALID,22.8818,VALID,100,VALID,1.26523,
2011-04-27, 03:25:04,VALID,997.431,VALID,0,VALID,90.8077,VALID,0,VALID,22.8623,VALID,114,VALID,0.977344,
2011-04-27, 03:26:04,VALID,997.432,VALID,0,VALID,90.7925,VALID,0,VALID,22.8215,VALID,114,VALID,0.684766,
2011-04-27, 03:27:04,VALID,997.458,VALID,0,VALID,90.8001,VALID,0,VALID,22.8232,VALID,114,VALID,0.434375,
2011-04-27, 03:28:04,VALID,997.443,VALID,0,VALID,90.8383,VALID,0,VALID,22.8037,VALID,114,VALID,0.365625,
2011-04-27, 03:29:04,VALID,997.452,VALID,0,VALID,90.8611,VALID,0,VALID,22.763,VALID,114,VALID,0.170703,
2011-04-27, 03:30:04,VALID,997.466,VALID,0,VALID,90.8917,VALID,0,VALID,22.7647,VALID,114,VALID,0.239453,
2011-04-27, 03:31:04,VALID,997.458,VALID,0,VALID,90.9146,VALID,0,VALID,22.7647,VALID,114,VALID,0,
2011-04-27, 03:32:04,VALID,997.473,VALID,0,VALID,90.9451,VALID,0,VALID,22.7257,VALID,114,VALID,0,
2011-04-27, 03:33:04,VALID,997.48,VALID,0,VALID,90.9756,VALID,0,VALID,22.7257,VALID,114,VALID,0,
2011-04-27, 03:34:04,VALID,997.488,VALID,0,VALID,91.0137,VALID,0,VALID,22.724,VALID,114,VALID,0,
2011-04-27, 03:35:04,VALID,997.502,VALID,0,VALID,91.029,VALID,0,VALID,22.7257,VALID,114,VALID,0,
2011-04-27, 03:36:04,VALID,997.499,VALID,0,VALID,91.0595,VALID,0,VALID,22.7257,VALID,114,VALID,0,
2011-04-27, 03:37:04,VALID,997.487,VALID,0,VALID,91.0443,VALID,0,VALID,22.7257,VALID,100,VALID,0.780469,
2011-04-27, 03:38:04,VALID,997.51,VALID,0,VALID,90.9909,VALID,0,VALID,22.7257,VALID,97,VALID,0.597266,
2011-04-27, 03:39:04,VALID,997.48,VALID,0,VALID,90.9909,VALID,0,VALID,22.7452,VALID,97,VALID,0.640625,
2011-04-27, 03:40:04,VALID,997.486,VALID,0,VALID,90.9527,VALID,0,VALID,22.7469,VALID,98,VALID,0.458984,
2011-04-27, 03:41:04,VALID,997.459,VALID,0,VALID,90.9222,VALID,0,VALID,22.7257,VALID,98,VALID,0.336328,
2011-04-27, 03:42:04,VALID,997.439,VALID,0,VALID,90.9451,VALID,0,VALID,22.7257,VALID,98,VALID,0.342578,
2011-04-27, 03:43:04,VALID,997.422,VALID,0,VALID,90.968,VALID,0,VALID,22.7257,VALID,98,VALID,0.28125,
2011-04-27, 03:44:04,VALID,997.399,VALID,0,VALID,90.9756,VALID,0,VALID,22.7045,VALID,98,VALID,0.0402344,
2011-04-27, 03:45:04,VALID,997.414,VALID,0,VALID,90.9985,VALID,0,VALID,22.7062,VALID,98,VALID,0.478906,
2011-04-27, 03:46:04,VALID,997.422,VALID,0,VALID,91.0214,VALID,0,VALID,22.7257,VALID,99,VALID,0.417969,
2011-04-27, 03:47:04,VALID,997.408,VALID,0,VALID,91.0061,VALID,0,VALID,22.7257,VALID,99,VALID,0.385156,